Weather History for Manassas, VA

Change the Weather History Date:

Saturday, November 16, 2013

  Actual Average Record
Temperature  
Mean Temperature 46 °F -  
Max Temperature 51 °F 54 °F 75 °F (2001)
Min Temperature 42 °F 30 °F 17 °F (1996)
Degree Days  
Heating Degree Days 18    
Moisture  
Dew Point 46 °F    
Average Humidity 97    
Maximum Humidity 100    
Minimum Humidity 93    
Precipitation  
Precipitation 0.00 in - - ()
Sea Level Pressure  
Sea Level Pressure 30.27 in    
Wind  
Wind Speed 0 mph (SSE)    
Max Wind Speed 9 mph    
Max Gust Speed -    
Visibility 3 miles    
Events Fog    
Averages and records for this station are not official NWS values.
T = Trace of Precipitation, MM = Missing Value Source: NWS Daily Summary

Daily Weather History Graph

Daily Weather History Graph

Search for Another Location

Airport:

Trip Planner

Search our weather history database for the weather conditions in past years. The results will help you decide how hot, cold, wet, or windy it might be!

Date:

Astronomy

Nov. 16, 2013 Rise Set
Actual Time 6:53 AM EST 4:55 PM EST
Civil Twilight 6:25 AM EST 5:24 PM EST
Nautical Twilight 5:52 AM EST 5:56 PM EST
Astronomical Twilight 5:21 AM EST 6:27 PM EST
Moon 4:29 PM EST (11/16) 5:48 AM EST (11/16)
Length of Visible Light 10h 59m
Length of Day
10h 02m
Waxing Gibbous, 99% of the Moon is Illuminated
Nov 16
Waxing Gibbous
Nov 17
Full
Nov 25
Last Quarter
Dec 2
New
Dec 9
First Quarter

Hourly Weather History & Observations

Time (EST) Temp. Windchill Dew Point Humidity Pressure Visibility Wind Dir Wind Speed Gust Speed Precip Events Conditions
12:15 AM 44.6 °F - 44.6 °F 100% 30.28 in 3.0 mi Calm Calm - N/A   Overcast
12:35 AM 42.8 °F - 42.8 °F 100% 30.28 in 5.0 mi Calm Calm - N/A   Overcast
12:55 AM 44.6 °F - 44.6 °F 100% 30.27 in 3.0 mi Calm Calm - N/A   Overcast
1:15 AM 44.6 °F - 44.6 °F 100% 30.27 in 4.0 mi Calm Calm - N/A   Overcast
1:35 AM 44.6 °F 43.1 °F 42.8 °F 93% 30.26 in 3.0 mi SSE 3.5 mph - N/A   Overcast
1:55 AM 44.6 °F - 42.8 °F 93% 30.27 in 4.0 mi Calm Calm - N/A   Overcast
2:15 AM 44.6 °F - 42.8 °F 93% 30.26 in 3.0 mi Calm Calm - N/A   Overcast
2:35 AM 44.6 °F - 44.6 °F 100% 30.25 in 4.0 mi Calm Calm - N/A   Overcast
2:55 AM 44.6 °F - 44.6 °F 100% 30.25 in 5.0 mi Calm Calm - N/A   Overcast
3:15 AM 44.6 °F - 44.6 °F 100% 30.25 in 5.0 mi Calm Calm - N/A   Overcast
3:35 AM 44.6 °F - 44.6 °F 100% 30.24 in 5.0 mi Calm Calm - N/A   Overcast
3:55 AM 44.6 °F - 42.8 °F 93% 30.24 in 4.0 mi Calm Calm - N/A   Overcast
4:15 AM 44.6 °F - 42.8 °F 93% 30.24 in 5.0 mi Calm Calm - N/A   Overcast
4:35 AM 44.6 °F - 44.6 °F 100% 30.26 in 4.0 mi Calm Calm - N/A   Overcast
4:55 AM 44.6 °F - 44.6 °F 100% 30.26 in 5.0 mi Calm Calm - N/A   Overcast
5:15 AM 44.6 °F - 42.8 °F 93% 30.26 in 4.0 mi Calm Calm - N/A   Overcast
5:35 AM 42.8 °F - 42.8 °F 100% 30.26 in 0.5 mi Calm Calm - N/A   Overcast
5:55 AM 42.8 °F - 42.8 °F 100% 30.26 in 1.2 mi Calm Calm - N/A   Overcast
6:15 AM 42.8 °F - 42.8 °F 100% 30.28 in 2.0 mi Calm Calm - N/A   Overcast
6:55 AM 44.6 °F - 42.8 °F 93% 30.29 in 2.0 mi Calm Calm - N/A   Overcast
8:20 AM 44.6 °F - 44.6 °F 100% 30.31 in 4.0 mi Calm Calm - N/A   Overcast
8:45 AM 46.4 °F - 46.4 °F 100% 30.32 in 4.0 mi Calm Calm - N/A   Overcast
9:55 AM 48.2 °F - 48.2 °F 100% 30.33 in 4.0 mi Calm Calm - N/A   Overcast
10:50 AM 50.0 °F - 50.0 °F 100% 30.32 in 3.0 mi Calm Calm - N/A   Overcast
11:45 AM 51.8 °F - 50.0 °F 94% 30.30 in 4.0 mi Calm Calm - N/A   Overcast
12:45 PM 51.8 °F - 51.8 °F 100% 30.27 in 4.0 mi Calm Calm - N/A   Overcast
1:45 PM 51.8 °F - 51.8 °F 100% 30.28 in 5.0 mi South 9.2 mph - N/A   Overcast
2:45 PM 51.8 °F - 51.8 °F 100% 30.27 in 6.0 mi Calm Calm - N/A   Overcast
3:45 PM 51.8 °F - 51.8 °F 100% 30.27 in 6.0 mi Calm Calm - N/A   Overcast
5:55 PM 51.8 °F - 50.0 °F 94% 30.27 in 3.0 mi Calm Calm - N/A   Overcast
8:45 PM 51.8 °F - 50.0 °F 94% 30.27 in 1.0 mi Calm Calm - N/A   Overcast
9:45 PM 51.8 °F - 50.0 °F 94% 30.26 in 0.5 mi Calm Calm - N/A Fog Fog
10:55 PM 51.8 °F - 50.0 °F 94% 30.25 in 0.5 mi Calm Calm - N/A   Overcast
11:15 PM 51.8 °F - 50.0 °F 94% 30.25 in 0.5 mi Calm Calm - N/A   Overcast
11:35 PM 51.8 °F - 50.0 °F 94% 30.25 in 0.5 mi Calm Calm - N/A   Overcast
11:55 PM 51.8 °F - 50.0 °F 94% 30.23 in 0.5 mi Calm Calm - N/A   Overcast